SCP
-0 0 -0 -0 -0 -0 -0 -0 -0 -0 -0 -0 -0 -0 -0 -0 -0 -0 -0 -0 -0 -0 -0 -0 -0 -0 -0 -0 -0 -0 -0 -0 -0 -0 -0 -0 -0 0 0 0 0 0 0
0 0 0 -0 -0 -0 -0 -0 -0 -0 -0 -0 -0 -0 -0 -0 -0 -0 -0 -0 -0 -0 -0 -0 -0 -0 -0 -0 -0 -0 -0 -0 -0 -0 -0 -0 -0 0 0 0 0 0 0
0 0 0 0 0 -0 -0 -0 -0 -0 -0 -0 -0 -0 -0 -0 -0 -0 -0 -0 -0 -0 -0 -0 -0 -0 -0 -0 -0 -0 -0 -0 -0 -0 -0 0 0 0 0 0 0 0 0
0 0 0 0 0 0 0 0 0 0 0 0 -0 0 0 0 -0 -0 -0 -0 0 -0 -0 -0 -0 -0 -0 -0 -0 -0 -0 0 0 0 0 0 -0 0 0 0 0 0 0
0 0 0 0 0 0 0 0 0 0 0 0 0 0 0 0 0 0 0 0 0 0 0 -0 0 0 -0 -0 -0 -0 0 0 0 0 0 0 -0 0 0 0 0 0 0
0 0 0 0 0 0 0 0 0 0 0 0 0 0 0 0 0 0 0 0 0 0 0 0 0 0 0 0 0 0 0 0 0 0 0 0 0 0 0 0 0 0 0
0 0 0 0 0 0 0 0 0 0 0 0 0 0 0 0 0 0 0 0 0 0 0 0 0 0 0 0 0 0 0 0 0 0 0 0 0 0 0 0 0 0 0
0 0 0 0 0 0 0 0 0 0 0 0 0 0 0 0 0 0 0 0 0 0 0 0 0 0 0 0 0 0 0 0 0 0 0 0 0 0 0 0 0 0 0
0 0 0 0 0 0 0 0 0 0 0 0 0 0 0 0 0 0 0 0 0 0 0 0 0 0 0 0 0 0 0 0 0 0 0 0 0 0 0 0 0 0 0
0 0 0 0 0 0 0 0 0 0 0 0 0 0 0 0 0 0 0 0 0 0 0 0 0 0 0 0 0 0 0 0 0 0 0 0 0 0 0 0 0 0 0
-0 0 0 0 0 0 0 0 0 0 0 0 0 0 0 0 0 0 0 0 0 0 0 0 0 0 0 0 0 0 0 0 0 0 0 0 0 0 0 0 0 0 0
0 0 0 0 0 0 0 0 0 0 0 0 0 0 0 0 0 0 0 0 0 0 0 0 0 0 0 0 0 0 0 0 0 0 0 0 0 0 0 0 0 0 0
0 0 0 0 0 0 0 0 0 0 0 0 0 0 0 0 0 0 0 0 0 0 0 0 0 0 0 0 0 0 0 0 0 0 0 0 0 0 0 0 0 0 0
0 0 0 0 0 0 0 0 0 0 0 0 0 0 0 0 0 0 0 0 0 0 0 0 0 0 0 0 0 0 0 0 0 0 0 0 0 0 0 0 0 0 0
0 0 0 0 0 0 0 0 0 0 0 0 0 0 0 0 0 0 0 0 0 0 0 0 0 0 0 0 0 0 0 0 0 0 0 0 0 0 0 0 0 0 0
0 0 0 0 0 0 0 0 0 0 0 0 0 0 0 0 0 0 0 0 0 0 0 0 0 0 0 0 0 0 0 0 0 0 0 0 0 0 0 0 0 0 0
0 0 0 0 0 0 0 0 0 0 0 0 0 0 0 0 0 0 0 0 0 0 0 0 0 0 0 0 0 0 0 0 0 0 0 0 0 0 0 0 0 0 0
0 0 0 0 0 0 0 0 0 0 0 0 0 0 0 0 0 0 0 0 0 0 0 0 0 0 0 0 0 0 0 0 0 0 0 0 0 0 0 0 0 0 0
0 0 0 0 0 0 0 0 0 0 0 0 0 0 0 0 0 0 0 0 0 0 0 0 0 0 0 0 0 0 0 0 0 0 0 0 0 0 0 0 0 0 0
-0 0 0 0 0 0 0 0 0 0 0 0 0 0 0 0 0 0 0 0 0 0 0 0 0 0 0 0 0 0 0 0 0 0 0 0 0 0 0 0 0 0 0
0 0 0 0 0 0 0 0 0 0 0 0 0 0 0 0 0 0 0 0 0 0 0 0 0 0 0 0 0 0 0 0 0 0 0 0 0 0 0 0 0 0 0
0 0 0 0 0 0 0 0 0 0 0 0 0 0 0 0 0 0 0 0 0 0 0 0 0 0 0 0 0 0 0 0 0 0 0 0 0 0 0 0 0 0 0
0 0 0 0 0 0 0 0 0 0 0 0 0 0 0 0 0 0 0 0 0 0 0 0 0 0 0 0 0 0 0 0 0 0 0 0 0 0 0 0 0 0 0
0 0 0 0 0 0 0 0 0 0 0 0 0 0 0 0 0 0 0 0 0 0 0 0 0 0 0 0 0 0 0 0 0 0 0 0 0 0 0 0 0 0 0
0 0 0 0 0 0 0 0 0 0 0 0 0 0 0 0 0 0 0 0 0 0 0 0 0 0 0 0 0 0 0 0 0 0 0 0 0 0 0 0 0 0 0
0 0 0 0 0 0 0 0 0 0 0 0 0 0 0 0 0 0 0 0 0 0 0 0 0 0 0 0 0 0 0 0 0 0 0 0 0 0 0 0 0 0 0
Wind_Speed_500mb
21 18 30 40 43 43 40 40 40 39 38 36 35 33 31 30 30 33 36 35 32 30 29 25 22 20 16 10 8 9 7 10 12 12 13 14 15 15 15 14 15 17 18
11 17 30 35 37 40 41 40 38 37 37 36 34 33 32 31 30 32 36 38 33 31 29 28 25 21 16 14 13 11 11 12 10 11 10 9 9 9 10 9 9 11 11
4 13 28 36 37 37 39 40 38 37 37 37 35 33 32 31 31 31 34 35 35 32 30 30 27 23 19 17 15 14 12 11 9 8 6 6 5 4 4 6 8 6 6
12 16 26 35 40 41 41 40 39 39 39 37 36 35 34 34 33 33 33 34 34 31 30 29 27 25 22 19 17 14 13 13 11 8 7 4 3 0 5 3 1 2 3
23 18 25 33 37 41 43 43 41 40 40 38 36 35 35 35 35 34 33 33 31 28 27 27 28 26 22 19 17 14 13 13 12 11 9 7 6 10 7 2 4 5 3
34 25 28 28 33 38 45 46 46 44 42 39 37 34 34 34 35 34 34 35 31 29 27 28 27 25 22 19 14 11 13 16 15 15 14 11 9 13 11 9 8 6 4
35 39 33 38 37 38 42 46 49 48 46 43 39 37 36 36 36 36 36 37 38 37 33 29 27 26 25 21 15 14 15 18 20 20 19 17 15 15 15 11 7 7 5
30 38 43 44 47 47 48 49 51 52 50 47 44 42 41 40 40 40 39 40 39 36 33 32 32 31 30 23 17 16 17 19 22 25 24 22 21 21 20 14 10 8 7
35 38 48 49 50 53 55 55 55 55 55 53 50 48 47 46 45 44 43 42 41 39 36 32 34 32 34 25 20 20 20 22 25 28 29 27 26 25 21 14 11 9 8
50 47 50 57 58 60 61 63 63 62 61 58 56 54 52 50 49 48 47 46 44 42 41 40 43 39 38 32 26 26 27 28 28 30 31 30 29 27 21 15 13 12 10
52 56 52 57 63 64 70 70 68 69 68 65 62 59 57 57 56 53 52 49 47 45 46 46 52 49 47 38 33 32 33 33 32 31 31 31 29 26 20 18 17 14 12
48 44 47 48 61 67 71 77 76 75 75 73 72 68 65 64 62 60 56 53 52 50 49 48 49 51 48 43 41 40 38 37 35 33 33 31 29 26 23 21 18 16 14
66 64 71 71 66 65 75 78 81 81 81 81 80 77 73 70 66 65 63 60 57 57 54 53 57 57 53 51 48 45 43 39 36 35 33 32 30 27 25 23 21 18 15
66 60 58 60 63 61 67 76 80 82 84 85 88 86 83 80 76 74 71 67 63 64 66 62 62 60 55 53 50 48 46 42 38 36 34 32 30 29 28 25 23 20 17
57 57 48 48 59 63 65 71 79 83 83 83 89 91 91 89 87 82 78 74 70 72 73 67 65 58 54 52 51 50 46 43 41 39 37 35 33 31 31 28 27 22 20
64 59 56 52 52 60 68 72 77 81 84 82 85 90 93 93 95 90 84 80 78 77 73 65 61 57 54 52 51 49 45 43 43 42 39 37 36 35 34 31 29 24 21
69 71 62 58 50 48 59 69 75 82 83 85 86 87 89 89 97 98 89 86 86 80 74 68 60 59 59 55 52 49 47 45 45 43 41 39 39 38 35 34 32 28 25
54 59 63 63 54 46 49 57 68 79 86 85 86 89 91 89 95 100 94 90 86 87 79 76 69 63 62 57 52 49 48 48 47 45 44 42 41 40 38 37 37 34 28
56 56 57 64 58 57 51 54 60 70 81 84 89 92 93 95 91 94 97 93 87 87 87 81 76 71 64 59 53 51 49 49 49 48 47 45 44 43 41 41 41 37 31
60 52 54 57 58 56 54 59 60 63 69 81 80 91 93 98 98 97 91 98 92 92 90 86 83 76 67 58 55 51 52 54 53 53 51 49 48 47 46 46 46 40 38
64 62 56 55 49 51 52 49 51 60 65 75 82 86 97 99 102 99 96 94 101 94 92 91 84 83 72 66 55 54 57 56 57 57 55 54 54 50 50 49 47 44 42
69 67 62 57 52 49 48 49 54 56 66 74 81 85 96 100 102 98 100 96 93 101 100 101 95 91 81 71 62 57 38 58 65 64 60 60 57 54 55 53 51 46 44
68 66 69 62 59 56 53 53 56 65 64 71 75 81 89 97 101 98 100 99 85 93 103 106 96 94 94 80 74 48 25 30 37 64 67 65 61 61 59 56 53 51 49
76 65 60 59 58 57 53 51 52 57 71 64 78 82 87 90 94 97 93 97 88 85 99 95 96 103 101 98 79 77 63 24 23 21 56 70 68 66 62 60 58 53 51
77 73 63 55 52 53 54 51 51 56 66 79 67 79 88 85 88 94 93 96 97 93 92 89 106 112 106 107 93 84 82 72 46 30 19 37 69 70 66 62 59 56 54
83 78 70 58 52 50 49 46 44 49 57 68 68 81 87 88 85 93 96 94 94 92 91 92 102 103 99 99 100 84 88 84 85 57 37 23 26 40 64 66 64 58 58
Wind_Direction_500mb
213 200 189 185 185 189 191 193 196 196 199 202 203 203 202 197 189 183 184 182 181 180 177 177 178 187 181 198 223 179 156 138 125 110 114 117 115 108 103 100 99 101 104
245 206 190 191 190 194 198 200 201 202 203 205 208 207 204 200 193 189 189 190 190 191 193 197 198 204 220 229 198 184 170 155 147 132 134 131 119 109 110 106 105 106 108
290 201 193 196 195 197 202 205 205 205 205 205 205 207 206 205 203 200 197 196 198 202 207 206 209 216 215 196 188 181 173 173 170 160 170 158 144 125 111 100 93 86 96
279 215 201 198 198 200 203 207 208 208 209 209 209 209 209 208 206 205 201 200 203 210 208 206 203 192 184 182 185 184 186 190 192 191 213 221 215 43 225 190 70 48 56
295 244 224 210 205 205 207 209 210 213 214 213 212 211 210 208 206 203 199 196 191 188 183 183 180 183 185 188 194 197 203 209 210 220 231 238 216 193 215 213 324 334 315
297 257 234 231 224 219 213 211 212 214 216 216 216 215 211 208 203 199 195 188 177 178 190 186 184 187 189 190 199 210 219 225 224 230 237 238 216 215 253 274 309 322 301
293 268 242 231 233 232 226 221 217 217 217 218 218 217 214 210 203 198 195 191 189 193 199 201 201 200 196 199 209 221 229 236 236 236 239 241 242 246 262 276 307 303 283
296 276 257 237 231 234 232 229 223 222 221 221 220 219 217 213 207 203 200 199 201 204 205 210 219 207 201 206 223 239 248 250 248 244 240 240 243 253 268 286 291 282 271
316 282 260 248 240 235 236 233 233 230 227 224 223 223 219 216 212 209 207 206 207 208 211 213 214 212 203 215 241 255 264 266 260 249 242 241 244 251 262 272 276 266 266
316 305 273 258 245 240 236 234 233 234 233 229 227 225 224 222 219 215 213 212 213 212 215 215 216 217 221 227 246 260 267 270 264 251 243 240 241 249 258 260 257 256 258
299 302 295 269 257 249 240 237 234 234 235 234 232 229 227 223 222 219 219 218 218 217 221 221 223 227 226 235 248 257 265 269 266 250 241 238 240 244 249 247 248 251 252
305 304 313 306 275 256 250 242 237 235 234 233 233 231 229 228 225 224 223 223 222 222 227 227 221 219 226 241 251 255 261 266 264 249 240 236 235 238 240 240 243 246 247
305 295 293 295 290 277 257 250 243 237 235 234 234 233 232 232 228 226 225 224 223 228 218 217 219 228 235 246 251 254 260 260 257 244 236 232 233 237 238 239 240 243 241
315 306 296 293 289 281 271 256 252 247 241 237 237 234 231 231 230 229 226 225 224 227 218 222 229 236 241 246 250 255 258 256 247 238 234 234 235 234 236 238 241 240 235
326 324 315 303 287 277 273 266 256 254 250 246 240 237 235 232 233 230 228 227 225 227 223 226 238 242 243 246 251 254 255 252 243 235 232 234 235 234 236 238 239 235 232
322 321 322 311 299 282 272 267 262 256 255 251 244 242 238 235 236 233 230 228 224 231 230 234 243 243 244 248 252 253 252 246 239 235 233 234 234 233 233 235 238 237 230
318 312 313 314 309 288 278 268 266 259 254 251 249 245 244 235 237 238 233 230 229 233 235 239 244 241 241 246 250 251 249 241 236 234 235 234 234 234 234 234 239 239 234
315 309 304 302 305 297 283 274 268 263 256 250 249 250 247 242 240 239 236 233 233 231 234 239 242 242 245 247 250 251 247 239 235 235 234 234 233 233 233 234 236 239 238
319 312 302 297 299 295 279 277 272 267 259 251 246 247 245 248 241 243 237 234 233 233 233 237 239 243 244 249 250 249 244 238 235 234 234 234 233 232 232 234 237 240 238
323 314 304 296 296 289 281 271 266 266 259 253 242 239 239 242 246 240 241 235 234 232 233 235 237 238 242 245 248 245 241 238 236 235 235 233 233 232 232 233 236 239 238
329 325 320 311 301 294 285 276 262 265 258 251 245 239 238 238 239 241 236 236 233 231 231 233 239 232 236 237 238 241 239 239 238 237 235 233 232 232 233 233 236 236 238
333 330 326 322 315 308 296 279 257 251 260 260 253 245 242 242 241 241 237 237 236 233 230 230 232 233 230 231 226 233 240 242 239 237 235 235 233 232 233 234 235 235 238
341 334 332 329 322 315 304 287 272 251 248 253 248 243 244 244 243 241 238 236 241 235 231 236 231 235 230 228 230 220 211 225 236 238 237 235 233 233 235 234 236 235 236
347 341 333 329 325 318 312 299 288 274 243 243 248 246 242 242 246 243 242 240 242 236 234 235 229 236 231 229 223 222 224 218 208 226 234 233 232 232 233 234 235 235 235
355 347 344 335 331 321 312 308 299 286 261 238 247 243 243 242 243 244 242 240 240 236 235 234 231 233 235 238 229 226 221 223 226 219 220 228 229 230 231 233 236 235 237
3 356 350 347 340 334 324 314 307 296 280 249 239 241 241 242 239 242 241 242 243 241 237 238 234 231 233 236 232 232 231 222 224 221 221 220 219 232 235 236 236 234 237
Wind_Speed_850mb
21 18 30 40 43 43 40 40 40 39 38 36 35 33 31 30 30 33 36 35 32 30 29 25 22 20 16 10 8 9 7 10 12 12 13 14 15 15 15 14 15 17 18
11 17 30 35 37 40 41 40 38 37 37 36 34 33 32 31 30 32 36 38 33 31 29 28 25 21 16 14 13 11 11 12 10 11 10 9 9 9 10 9 9 11 11
4 13 28 36 37 37 39 40 38 37 37 37 35 33 32 31 31 31 34 35 35 32 30 30 27 23 19 17 15 14 12 11 9 8 6 6 5 4 4 6 8 6 6
12 16 26 35 40 41 41 40 39 39 39 37 36 35 34 34 33 33 33 34 34 31 30 29 27 25 22 19 17 14 13 13 11 8 7 4 3 0 5 3 1 2 3
23 18 25 33 37 41 43 43 41 40 40 38 36 35 35 35 35 34 33 33 31 28 27 27 28 26 22 19 17 14 13 13 12 11 9 7 6 10 7 2 4 5 3
34 25 28 28 33 38 45 46 46 44 42 39 37 34 34 34 35 34 34 35 31 29 27 28 27 25 22 19 14 11 13 16 15 15 14 11 9 13 11 9 8 6 4
35 39 33 38 37 38 42 46 49 48 46 43 39 37 36 36 36 36 36 37 38 37 33 29 27 26 25 21 15 14 15 18 20 20 19 17 15 15 15 11 7 7 5
30 38 43 44 47 47 48 49 51 52 50 47 44 42 41 40 40 40 39 40 39 36 33 32 32 31 30 23 17 16 17 19 22 25 24 22 21 21 20 14 10 8 7
35 38 48 49 50 53 55 55 55 55 55 53 50 48 47 46 45 44 43 42 41 39 36 32 34 32 34 25 20 20 20 22 25 28 29 27 26 25 21 14 11 9 8
50 47 50 57 58 60 61 63 63 62 61 58 56 54 52 50 49 48 47 46 44 42 41 40 43 39 38 32 26 26 27 28 28 30 31 30 29 27 21 15 13 12 10
52 56 52 57 63 64 70 70 68 69 68 65 62 59 57 57 56 53 52 49 47 45 46 46 52 49 47 38 33 32 33 33 32 31 31 31 29 26 20 18 17 14 12
48 44 47 48 61 67 71 77 76 75 75 73 72 68 65 64 62 60 56 53 52 50 49 48 49 51 48 43 41 40 38 37 35 33 33 31 29 26 23 21 18 16 14
66 64 71 71 66 65 75 78 81 81 81 81 80 77 73 70 66 65 63 60 57 57 54 53 57 57 53 51 48 45 43 39 36 35 33 32 30 27 25 23 21 18 15
66 60 58 60 63 61 67 76 80 82 84 85 88 86 83 80 76 74 71 67 63 64 66 62 62 60 55 53 50 48 46 42 38 36 34 32 30 29 28 25 23 20 17
57 57 48 48 59 63 65 71 79 83 83 83 89 91 91 89 87 82 78 74 70 72 73 67 65 58 54 52 51 50 46 43 41 39 37 35 33 31 31 28 27 22 20
64 59 56 52 52 60 68 72 77 81 84 82 85 90 93 93 95 90 84 80 78 77 73 65 61 57 54 52 51 49 45 43 43 42 39 37 36 35 34 31 29 24 21
69 71 62 58 50 48 59 69 75 82 83 85 86 87 89 89 97 98 89 86 86 80 74 68 60 59 59 55 52 49 47 45 45 43 41 39 39 38 35 34 32 28 25
54 59 63 63 54 46 49 57 68 79 86 85 86 89 91 89 95 100 94 90 86 87 79 76 69 63 62 57 52 49 48 48 47 45 44 42 41 40 38 37 37 34 28
56 56 57 64 58 57 51 54 60 70 81 84 89 92 93 95 91 94 97 93 87 87 87 81 76 71 64 59 53 51 49 49 49 48 47 45 44 43 41 41 41 37 31
60 52 54 57 58 56 54 59 60 63 69 81 80 91 93 98 98 97 91 98 92 92 90 86 83 76 67 58 55 51 52 54 53 53 51 49 48 47 46 46 46 40 38
64 62 56 55 49 51 52 49 51 60 65 75 82 86 97 99 102 99 96 94 101 94 92 91 84 83 72 66 55 54 57 56 57 57 55 54 54 50 50 49 47 44 42
69 67 62 57 52 49 48 49 54 56 66 74 81 85 96 100 102 98 100 96 93 101 100 101 95 91 81 71 62 57 38 58 65 64 60 60 57 54 55 53 51 46 44
68 66 69 62 59 56 53 53 56 65 64 71 75 81 89 97 101 98 100 99 85 93 103 106 96 94 94 80 74 48 25 30 37 64 67 65 61 61 59 56 53 51 49
76 65 60 59 58 57 53 51 52 57 71 64 78 82 87 90 94 97 93 97 88 85 99 95 96 103 101 98 79 77 63 24 23 21 56 70 68 66 62 60 58 53 51
77 73 63 55 52 53 54 51 51 56 66 79 67 79 88 85 88 94 93 96 97 93 92 89 106 112 106 107 93 84 82 72 46 30 19 37 69 70 66 62 59 56 54
83 78 70 58 52 50 49 46 44 49 57 68 68 81 87 88 85 93 96 94 94 92 91 92 102 103 99 99 100 84 88 84 85 57 37 23 26 40 64 66 64 58 58
Wind_Direction_850mb
213 200 189 185 185 189 191 193 196 196 199 202 203 203 202 197 189 183 184 182 181 180 177 177 178 187 181 198 223 179 156 138 125 110 114 117 115 108 103 100 99 101 104
245 206 190 191 190 194 198 200 201 202 203 205 208 207 204 200 193 189 189 190 190 191 193 197 198 204 220 229 198 184 170 155 147 132 134 131 119 109 110 106 105 106 108
290 201 193 196 195 197 202 205 205 205 205 205 205 207 206 205 203 200 197 196 198 202 207 206 209 216 215 196 188 181 173 173 170 160 170 158 144 125 111 100 93 86 96
279 215 201 198 198 200 203 207 208 208 209 209 209 209 209 208 206 205 201 200 203 210 208 206 203 192 184 182 185 184 186 190 192 191 213 221 215 43 225 190 70 48 56
295 244 224 210 205 205 207 209 210 213 214 213 212 211 210 208 206 203 199 196 191 188 183 183 180 183 185 188 194 197 203 209 210 220 231 238 216 193 215 213 324 334 315
297 257 234 231 224 219 213 211 212 214 216 216 216 215 211 208 203 199 195 188 177 178 190 186 184 187 189 190 199 210 219 225 224 230 237 238 216 215 253 274 309 322 301
293 268 242 231 233 232 226 221 217 217 217 218 218 217 214 210 203 198 195 191 189 193 199 201 201 200 196 199 209 221 229 236 236 236 239 241 242 246 262 276 307 303 283
296 276 257 237 231 234 232 229 223 222 221 221 220 219 217 213 207 203 200 199 201 204 205 210 219 207 201 206 223 239 248 250 248 244 240 240 243 253 268 286 291 282 271
316 282 260 248 240 235 236 233 233 230 227 224 223 223 219 216 212 209 207 206 207 208 211 213 214 212 203 215 241 255 264 266 260 249 242 241 244 251 262 272 276 266 266
316 305 273 258 245 240 236 234 233 234 233 229 227 225 224 222 219 215 213 212 213 212 215 215 216 217 221 227 246 260 267 270 264 251 243 240 241 249 258 260 257 256 258
299 302 295 269 257 249 240 237 234 234 235 234 232 229 227 223 222 219 219 218 218 217 221 221 223 227 226 235 248 257 265 269 266 250 241 238 240 244 249 247 248 251 252
305 304 313 306 275 256 250 242 237 235 234 233 233 231 229 228 225 224 223 223 222 222 227 227 221 219 226 241 251 255 261 266 264 249 240 236 235 238 240 240 243 246 247
305 295 293 295 290 277 257 250 243 237 235 234 234 233 232 232 228 226 225 224 223 228 218 217 219 228 235 246 251 254 260 260 257 244 236 232 233 237 238 239 240 243 241
315 306 296 293 289 281 271 256 252 247 241 237 237 234 231 231 230 229 226 225 224 227 218 222 229 236 241 246 250 255 258 256 247 238 234 234 235 234 236 238 241 240 235
326 324 315 303 287 277 273 266 256 254 250 246 240 237 235 232 233 230 228 227 225 227 223 226 238 242 243 246 251 254 255 252 243 235 232 234 235 234 236 238 239 235 232
322 321 322 311 299 282 272 267 262 256 255 251 244 242 238 235 236 233 230 228 224 231 230 234 243 243 244 248 252 253 252 246 239 235 233 234 234 233 233 235 238 237 230
318 312 313 314 309 288 278 268 266 259 254 251 249 245 244 235 237 238 233 230 229 233 235 239 244 241 241 246 250 251 249 241 236 234 235 234 234 234 234 234 239 239 234
315 309 304 302 305 297 283 274 268 263 256 250 249 250 247 242 240 239 236 233 233 231 234 239 242 242 245 247 250 251 247 239 235 235 234 234 233 233 233 234 236 239 238
319 312 302 297 299 295 279 277 272 267 259 251 246 247 245 248 241 243 237 234 233 233 233 237 239 243 244 249 250 249 244 238 235 234 234 234 233 232 232 234 237 240 238
323 314 304 296 296 289 281 271 266 266 259 253 242 239 239 242 246 240 241 235 234 232 233 235 237 238 242 245 248 245 241 238 236 235 235 233 233 232 232 233 236 239 238
329 325 320 311 301 294 285 276 262 265 258 251 245 239 238 238 239 241 236 236 233 231 231 233 239 232 236 237 238 241 239 239 238 237 235 233 232 232 233 233 236 236 238
333 330 326 322 315 308 296 279 257 251 260 260 253 245 242 242 241 241 237 237 236 233 230 230 232 233 230 231 226 233 240 242 239 237 235 235 233 232 233 234 235 235 238
341 334 332 329 322 315 304 287 272 251 248 253 248 243 244 244 243 241 238 236 241 235 231 236 231 235 230 228 230 220 211 225 236 238 237 235 233 233 235 234 236 235 236
347 341 333 329 325 318 312 299 288 274 243 243 248 246 242 242 246 243 242 240 242 236 234 235 229 236 231 229 223 222 224 218 208 226 234 233 232 232 233 234 235 235 235
355 347 344 335 331 321 312 308 299 286 261 238 247 243 243 242 243 244 242 240 240 236 235 234 231 233 235 238 229 226 221 223 226 219 220 228 229 230 231 233 236 235 237
3 356 350 347 340 334 324 314 307 296 280 249 239 241 241 242 239 242 241 242 243 241 237 238 234 231 233 236 232 232 231 222 224 221 221 220 219 232 235 236 236 234 237